GW2922 Weather Reports


time (UTC)temp
C
wind
direction
speed
KPH
gust
KPH
rain 1hr
cm
rain 24hr
cm
rain mn
cm
humidity
%
barometer
mb
20260509193431 17 53 1.6 4.8 0.00 0.00 0.00 67 1022.9
20260509192927 17 101 0.0 1.6 0.00 0.00 0.00 67 1022.9
20260509192424 17 113 1.6 4.8 0.00 0.00 0.00 67 1022.9
20260509191919 18 88 0.0 3.2 0.00 0.00 0.00 63 1023.3
20260509191414 17 101 1.6 4.8 0.00 0.00 0.00 61 1023.3
20260509190911 17 105 0.0 6.4 0.00 0.00 0.00 63 1023.3
20260509190408 18 73 1.6 4.8 0.00 0.00 0.00 61 1023.3
20260509185906 17 118 3.2 9.7 0.00 0.00 0.00 63 1023.3
20260509185403 17 177 8.0 9.7 0.00 0.00 0.00 62 1023.6
20260509184859 17 107 0.0 6.4 0.00 0.00 0.00 66 1023.3
20260509184356 17 113 4.8 4.8 0.00 0.00 0.00 64 1023.3
20260509183854 16 68 0.0 3.2 0.00 0.00 0.00 69 1023.3
20260509183348 16 100 0.0 4.8 0.00 0.00 0.00 70 1023.3
20260509182844 17 102 1.6 3.2 0.00 0.00 0.00 68 1023.3
20260509182342 17 105 3.2 4.8 0.00 0.00 0.00 66 1023.3
20260509181839 17 158 1.6 4.8 0.00 0.00 0.00 66 1023.3
20260509181336 17 154 4.8 6.4 0.00 0.00 0.00 67 1023.6
20260509180833 16 141 0.0 3.2 0.00 0.00 0.00 67 1023.6
20260509180329 17 111 1.6 3.2 0.00 0.00 0.00 67 1023.6
20260509175826 16 107 3.2 6.4 0.00 0.00 0.00 68 1023.6
20260509175322 16 192 6.4 9.7 0.00 0.00 0.00 67 1023.6
20260509174818 16 104 1.6 6.4 0.00 0.00 0.00 68 1023.3
20260509174314 16 143 1.6 6.4 0.00 0.00 0.00 68 1023.6
20260509173810 16 91 0.0 1.6 0.00 0.00 0.00 67 1023.6
20260509173306 16 190 0.0 4.8 0.00 0.00 0.00 70 1023.6
20260509172802 15 94 3.2 4.8 0.00 0.00 0.00 70 1023.6
20260509172259 15 197 4.8 4.8 0.00 0.00 0.00 70 1023.6
20260509171755 15 169 1.6 6.4 0.00 0.00 0.00 70 1023.6
20260509171251 15 108 1.6 1.6 0.00 0.00 0.00 70 1023.6
20260509170747 15 107 1.6 9.7 0.00 0.00 0.00 70 1023.6
20260509170243 15 101 1.6 3.2 0.00 0.00 0.00 70 1024.0
20260509165742 15 101 3.2 4.8 0.00 0.00 0.00 71 1024.0
20260509165238 14 173 4.8 6.4 0.00 0.00 0.00 71 1023.6
20260509164734 13 164 1.6 4.8 0.00 0.00 0.00 72 1023.6
20260509164229 13 100 0.0 1.6 0.00 0.00 0.00 74 1023.6
20260509163727 13 190 3.2 4.8 0.00 0.00 0.00 73 1023.6
20260509163223 13 126 0.0 0.0 0.00 0.00 0.00 73 1024.0
20260509162721 13 111 3.2 6.4 0.00 0.00 0.00 74 1023.6
20260509162216 13 67 0.0 1.6 0.00 0.00 0.00 74 1024.0
20260509161712 13 104 0.0 1.6 0.00 0.00 0.00 74 1024.0
20260509161209 13 113 0.0 1.6 0.00 0.00 0.00 75 1024.0
20260509160704 13 112 1.6 3.2 0.00 0.00 0.00 75 1024.0
20260509160200 12 101 1.6 3.2 0.00 0.00 0.00 76 1024.0
20260509155656 12 188 4.8 4.8 0.00 0.00 0.00 76 1024.0
20260509155152 12 122 3.2 3.2 0.00 0.00 0.00 76 1024.0
20260509154648 12 111 0.0 0.0 0.00 0.00 0.00 77 1024.0
20260509154146 12 138 1.6 4.8 0.00 0.00 0.00 77 1024.3
20260509153642 12 197 1.6 6.4 0.00 0.00 0.00 77 1024.3
20260509153139 12 151 1.6 3.2 0.00 0.00 0.00 78 1024.3
20260509152634 11 122 1.6 3.2 0.00 0.00 0.00 78 1024.0
20260509152132 11 112 3.2 3.2 0.00 0.00 0.00 79 1024.0
20260509151628 11 169 1.6 4.8 0.00 0.00 0.00 79 1024.0
20260509151126 11 131 1.6 3.2 0.00 0.00 0.00 80 1024.0
20260509150624 11 197 3.2 4.8 0.00 0.00 0.00 80 1024.0
20260509150122 11 100 0.0 3.2 0.00 0.00 0.00 81 1024.0
20260509145617 11 112 0.0 1.6 0.00 0.00 0.00 82 1024.3
20260509145113 11 131 0.0 1.6 0.00 0.00 0.00 82 1024.3
20260509144610 11 125 1.6 3.2 0.00 0.00 0.00 82 1024.3
20260509144107 10 167 3.2 4.8 0.00 0.00 0.00 82 1024.3
20260509143604 10 111 0.0 3.2 0.00 0.00 0.00 83 1024.3
20260509143102 10 115 0.0 3.2 0.00 0.00 0.00 83 1024.3
20260509142556 10 110 0.0 1.6 0.00 0.00 0.00 83 1024.3
20260509142053 10 109 0.0 3.2 0.00 0.00 0.00 83 1024.3
20260509141549 10 106 0.0 0.0 0.00 0.00 0.00 83 1024.3
20260509141046 10 140 0.0 1.6 0.00 0.00 0.00 83 1024.3
20260509140543 10 119 0.0 3.2 0.00 0.00 0.00 83 1024.3
20260509140041 10 121 0.0 1.6 0.00 0.00 0.00 84 1024.3
20260509135538 10 139 1.6 1.6 0.00 0.00 0.00 85 1024.7
20260509135035 10 140 1.6 1.6 0.00 0.00 0.00 85 1024.7
20260509134532 10 117 0.0 0.0 0.00 0.00 0.00 86 1024.7
20260509134030 10 119 0.0 0.0 0.00 0.00 0.00 86 1024.7
20260509133526 10 122 0.0 0.0 0.00 0.00 0.00 86 1024.7
20260509133024 10 116 0.0 0.0 0.00 0.00 0.00 86 1024.3
20260509132522 10 114 0.0 0.0 0.00 0.00 0.00 86 1024.7
20260509132020 10 112 0.0 0.0 0.00 0.00 0.00 86 1024.3
20260509131516 9 112 0.0 0.0 0.00 0.00 0.00 86 1024.3
20260509131013 10 112 0.0 0.0 0.00 0.00 0.00 86 1024.3
20260509130508 9 108 0.0 0.0 0.00 0.00 0.00 86 1024.7
20260509130006 9 120 0.0 0.0 0.00 0.00 0.00 86 1024.3
20260509125502 9 122 0.0 0.0 0.00 0.00 0.00 86 1024.3
20260509124958 9 106 0.0 0.0 0.00 0.00 0.00 86 1024.7
20260509124455 9 108 0.0 0.0 0.00 0.00 0.00 86 1024.3
20260509123952 10 107 0.0 0.0 0.00 0.00 0.00 86 1024.3
20260509123450 10 107 0.0 0.0 0.00 0.00 0.00 86 1024.3
20260509122945 10 113 0.0 0.0 0.00 0.00 0.00 86 1024.7
20260509122443 10 113 0.0 0.0 0.00 0.00 0.00 86 1024.3
20260509121939 10 112 0.0 0.0 0.00 0.00 0.00 85 1024.7
20260509121436 10 115 0.0 0.0 0.00 0.00 0.00 85 1024.7
20260509120934 10 112 0.0 0.0 0.00 0.00 0.00 85 1024.7
20260509120432 10 114 0.0 0.0 0.00 0.00 0.00 85 1024.7
20260509115930 10 112 0.0 0.0 0.00 0.00 0.00 85 1024.7
20260509115427 10 107 0.0 0.0 0.00 0.00 0.00 84 1024.7
20260509114924 10 108 0.0 0.0 0.00 0.00 0.00 84 1024.7
20260509114423 10 121 0.0 0.0 0.00 0.00 0.00 84 1024.7
20260509113922 10 133 0.0 0.0 0.00 0.00 0.00 84 1024.7
20260509113419 10 111 0.0 0.0 0.00 0.00 0.00 83 1024.7
20260509112916 10 110 0.0 0.0 0.00 0.00 0.00 83 1024.7
20260509112413 10 108 0.0 3.2 0.00 0.00 0.00 83 1024.7
20260509111910 10 115 3.2 3.2 0.00 0.00 0.00 84 1024.7
20260509111407 10 130 1.6 1.6 0.00 0.00 0.00 84 1024.7
20260509110904 10 131 1.6 1.6 0.00 0.00 0.00 85 1024.7
20260509110400 10 131 0.0 1.6 0.00 0.00 0.00 85 1024.7
20260509105859 10 134 0.0 3.2 0.00 0.00 0.00 84 1024.7
20260509105356 10 115 3.2 4.8 0.00 0.00 0.00 84 1024.7
20260509104853 10 150 1.6 3.2 0.00 0.00 0.00 84 1025.1
20260509104349 10 111 1.6 1.6 0.00 0.00 0.00 84 1024.7
20260509103847 10 124 0.0 1.6 0.00 0.00 0.00 84 1024.7
20260509103344 10 121 1.6 4.8 0.00 0.00 0.00 84 1024.7
20260509102843 10 144 3.2 3.2 0.00 0.00 0.00 83 1024.7
20260509102340 10 162 4.8 4.8 0.00 0.00 0.00 83 1024.7
20260509101835 10 156 3.2 3.2 0.00 0.00 0.00 83 1024.7
20260509101332 10 118 1.6 3.2 0.00 0.00 0.00 84 1024.7
20260509100830 10 125 1.6 3.2 0.00 0.00 0.00 84 1025.1
20260509100327 10 130 0.0 4.8 0.00 0.00 0.00 85 1025.1
20260509095823 9 119 0.0 1.6 0.00 0.00 0.00 86 1025.1
20260509095321 9 136 1.6 1.6 0.00 0.00 0.00 86 1024.7
20260509094818 10 156 1.6 1.6 0.00 0.00 0.00 86 1025.1
20260509094314 10 127 0.0 0.0 0.00 0.00 0.00 86 1025.1
20260509093812 10 113 0.0 0.0 0.00 0.00 0.00 86 1024.7
20260509093309 10 121 0.0 0.0 0.00 0.00 0.00 85 1024.7
20260509092808 10 122 0.0 1.6 0.00 0.00 0.00 85 1025.1
20260509092306 10 123 0.0 1.6 0.00 0.00 0.00 84 1025.1
20260509091803 10 124 1.6 1.6 0.00 0.00 0.00 84 1024.7
20260509091259 10 123 0.0 0.0 0.00 0.00 0.00 83 1024.7
20260509090757 10 123 0.0 0.0 0.00 0.00 0.00 83 1024.7
20260509090254 10 123 0.0 0.0 0.00 0.00 0.00 83 1025.1
20260509085751 10 123 0.0 0.0 0.00 0.00 0.00 83 1025.1
20260509085249 10 123 0.0 0.0 0.00 0.00 0.00 83 1025.1
20260509084745 10 123 0.0 0.0 0.00 0.00 0.00 83 1025.1
20260509084242 10 118 0.0 1.6 0.00 0.00 0.00 82 1025.1
20260509083740 10 118 0.0 1.6 0.00 0.00 0.00 82 1025.1
20260509083236 10 118 0.0 0.0 0.00 0.00 0.00 82 1025.1
20260509082733 10 118 0.0 1.6 0.00 0.00 0.00 82 1025.4
20260509082229 10 113 0.0 0.0 0.00 0.00 0.00 82 1025.4
20260509081726 10 112 0.0 0.0 0.00 0.00 0.00 81 1025.4
20260509081224 10 112 0.0 0.0 0.00 0.00 0.00 81 1025.4
20260509080722 10 112 0.0 0.0 0.00 0.00 0.00 81 1025.1
20260509080219 10 112 0.0 0.0 0.00 0.00 0.00 81 1025.4
20260509075718 10 112 0.0 0.0 0.00 0.00 0.00 81 1025.4
20260509075215 10 112 0.0 0.0 0.00 0.00 0.00 81 1025.4
20260509074711 10 105 0.0 0.0 0.00 0.00 0.00 81 1025.1
20260509074209 10 105 0.0 0.0 0.00 0.00 0.00 81 1025.4
20260509073705 10 105 0.0 0.0 0.00 0.00 0.00 81 1025.1
20260509073201 10 105 0.0 0.0 0.00 0.00 0.00 81 1025.1
20260509072658 10 105 0.0 0.0 0.00 0.00 0.00 81 1025.1
20260509072155 10 105 0.0 0.0 0.00 0.00 0.00 81 1025.1
20260509071652 10 105 0.0 0.0 0.00 0.00 0.00 81 1025.1
20260509071149 10 105 0.0 0.0 0.00 0.00 0.00 81 1025.1
20260509070646 10 105 0.0 0.0 0.00 0.00 0.00 81 1025.1
20260509070142 10 105 0.0 0.0 0.00 0.00 0.00 81 1025.1
20260509065638 10 105 0.0 0.0 0.00 0.00 0.00 81 1025.1
20260509065134 10 105 0.0 0.0 0.00 0.00 0.00 81 1025.1
20260509064631 10 105 0.0 0.0 0.00 0.00 0.00 81 1025.1
20260509064129 10 105 0.0 0.0 0.00 0.00 0.00 82 1025.1
20260509063625 10 105 0.0 0.0 0.00 0.00 0.00 81 1025.1
20260509063117 10 100 0.0 0.0 0.00 0.00 0.00 81 1025.1
20260509062614 10 100 0.0 0.0 0.00 0.00 0.00 81 1025.1
20260509062111 10 112 0.0 0.0 0.00 0.00 0.00 80 1025.1
20260509061608 10 96 0.0 0.0 0.00 0.00 0.00 79 1025.1
20260509061105 10 95 0.0 0.0 0.00 0.00 0.00 79 1025.1
20260509060603 10 96 0.0 0.0 0.00 0.00 0.00 79 1025.1
20260509060058 10 93 0.0 1.6 0.00 0.00 0.00 79 1025.1
20260509055554 10 95 0.0 1.6 0.00 0.00 0.00 79 1025.1
20260509055050 10 100 0.0 0.0 0.00 0.00 0.00 79 1025.1
20260509054547 10 100 0.0 0.0 0.00 0.00 0.00 79 1025.1
20260509054045 10 96 0.0 1.6 0.00 0.00 0.00 79 1025.1
20260509053543 10 93 0.0 0.0 0.00 0.00 0.00 78 1025.4
20260509053040 10 90 0.0 0.0 0.00 0.00 0.00 78 1025.1
20260509052538 10 111 0.0 3.2 0.00 0.00 0.00 79 1025.1
20260509052035 10 94 1.6 1.6 0.00 0.00 0.00 79 1025.1
20260509051533 10 95 0.0 0.0 0.00 0.00 0.00 79 1025.1
20260509051030 10 101 0.0 1.6 0.00 0.00 0.00 79 1025.1
20260509050527 10 92 0.0 3.2 0.00 0.00 0.00 79 1025.1
20260509050023 10 93 0.0 1.6 0.00 0.00 0.00 79 1025.1
20260509045520 10 94 0.0 1.6 0.00 0.00 0.00 79 1025.1
20260509045017 10 94 0.0 1.6 0.00 0.00 0.00 79 1025.1
20260509044515 10 74 0.0 0.0 0.00 0.00 0.00 79 1025.1
20260509044013 10 78 0.0 1.6 0.00 0.00 0.00 78 1024.7
20260509043508 10 99 0.0 0.0 0.00 0.00 0.00 78 1025.1
20260509043005 11 96 0.0 1.6 0.00 0.00 0.00 77 1025.1
20260509042501 11 98 0.0 0.0 0.00 0.00 0.00 77 1025.1
20260509041956 11 97 0.0 1.6 0.00 0.00 0.00 77 1024.7
20260509041454 11 97 0.0 0.0 0.00 0.00 0.00 77 1024.7
20260509040952 11 112 0.0 0.0 0.00 0.00 0.00 77 1024.7
20260509040450 11 96 0.0 0.0 0.00 0.00 0.00 77 1024.7
20260509035946 11 99 0.0 0.0 0.00 0.00 0.00 77 1024.7
20260509035443 11 89 0.0 3.2 0.00 0.00 0.00 76 1025.1
20260509034939 11 94 0.0 1.6 0.00 0.00 0.00 76 1024.7
20260509034437 11 82 1.6 3.2 0.00 0.00 0.00 76 1024.7
20260509033934 11 97 0.0 3.2 0.00 0.00 0.00 76 1024.7
20260509033431 11 60 0.0 1.6 0.00 0.00 0.00 76 1024.7
20260509032928 11 87 1.6 3.2 0.00 0.00 0.00 76 1024.7
20260509032425 11 112 0.0 0.0 0.00 0.00 0.00 76 1024.7
20260509031923 11 94 0.0 1.6 0.00 0.00 0.00 75 1024.7
20260509031420 11 75 0.0 1.6 0.00 0.00 0.00 75 1024.7
20260509030917 11 90 1.6 1.6 0.00 0.00 0.00 74 1024.7
20260509030415 11 80 0.0 1.6 0.00 0.00 0.00 74 1024.3
20260509025912 11 110 0.0 3.2 0.00 0.00 0.00 74 1024.3
20260509025408 11 95 0.0 1.6 0.00 0.00 0.00 73 1024.3
20260509024903 11 115 0.0 1.6 0.00 0.00 0.00 73 1024.7
20260509024359 11 317 1.6 3.2 0.00 0.00 0.00 73 1024.3
20260509023856 12 69 1.6 3.2 0.00 0.00 0.00 71 1024.3
20260509023354 12 103 1.6 3.2 0.00 0.00 0.00 70 1024.0
20260509022850 12 106 0.0 3.2 0.00 0.00 0.00 70 1024.0
20260509022347 12 97 1.6 4.8 0.00 0.00 0.00 69 1024.0
20260509021844 12 344 1.6 4.8 0.00 0.00 0.00 68 1024.0
20260509021341 12 79 1.6 9.7 0.00 0.00 0.00 67 1024.0
20260509020839 12 316 3.2 6.4 0.00 0.00 0.00 67 1024.3
20260509020337 13 355 1.6 3.2 0.00 0.00 0.00 68 1024.0
20260509015834 13 296 3.2 6.4 0.00 0.00 0.00 68 1024.3
20260509015332 13 197 1.6 4.8 0.00 0.00 0.00 68 1024.0
20260509014828 13 180 3.2 4.8 0.00 0.00 0.00 68 1024.0
20260509014326 13 85 0.0 4.8 0.00 0.00 0.00 69 1024.0
20260509013822 13 89 1.6 4.8 0.00 0.00 0.00 69 1024.0
20260509013319 13 32 3.2 4.8 0.00 0.00 0.00 68 1024.0
20260509012815 13 2 1.6 3.2 0.00 0.00 0.00 69 1024.0
20260509012312 13 97 1.6 3.2 0.00 0.00 0.00 69 1024.0
20260509011809 13 65 3.2 4.8 0.00 0.00 0.00 68 1024.0
20260509011306 14 106 0.0 1.6 0.00 0.00 0.00 67 1024.0
20260509010804 14 324 3.2 4.8 0.00 0.00 0.00 66 1024.0
20260509010301 13 271 1.6 3.2 0.00 0.00 0.00 68 1024.0
20260509005758 13 89 1.6 3.2 0.00 0.00 0.00 68 1024.0
20260509005256 13 144 0.0 1.6 0.00 0.00 0.00 68 1024.0
20260509004755 13 117 0.0 4.8 0.00 0.00 0.00 68 1024.0
20260509004252 13 82 1.6 1.6 0.00 0.00 0.00 68 1024.3
20260509003751 13 61 1.6 3.2 0.00 0.00 0.00 68 1024.0
20260509003248 14 17 3.2 4.8 0.00 0.00 0.00 67 1024.0
20260509002745 13 108 0.0 1.6 0.00 0.00 0.00 68 1024.0
20260509002242 13 144 0.0 0.0 0.00 0.00 0.00 68 1024.0
20260509001740 13 53 1.6 3.2 0.00 0.00 0.00 69 1024.3
20260509001235 13 280 3.2 6.4 0.00 0.00 0.00 68 1024.3
20260509000734 13 0 3.2 3.2 0.00 0.00 0.00 68 1024.3
20260509000231 13 81 1.6 4.8 0.00 0.00 0.00 69 1024.3
20260508235728 13 47 3.2 6.4 0.00 0.00 0.00 69 1024.3
20260508235224 13 68 1.6 4.8 0.00 0.00 0.00 69 1024.3
20260508234721 12 81 1.6 3.2 0.00 0.00 0.00 70 1024.0
20260508234217 13 50 1.6 1.6 0.00 0.00 0.00 69 1024.0
20260508233712 13 341 1.6 3.2 0.00 0.00 0.00 69 1024.0
20260508233209 13 99 0.0 1.6 0.00 0.00 0.00 69 1024.0
20260508232706 13 93 0.0 3.2 0.00 0.00 0.00 69 1024.0
20260508232203 13 315 1.6 3.2 0.00 0.00 0.00 68 1024.3
20260508231701 14 14 0.0 1.6 0.00 0.00 0.00 66 1024.0
20260508231157 13 112 0.0 3.2 0.00 0.00 0.00 67 1024.0
20260508230654 14 55 1.6 3.2 0.00 0.00 0.00 66 1024.0
20260508230150 13 67 1.6 1.6 0.00 0.00 0.00 67 1024.0
20260508225649 13 147 0.0 3.2 0.00 0.00 0.00 68 1024.0
20260508225144 13 100 1.6 3.2 0.00 0.00 0.00 69 1024.0
20260508224642 12 355 1.6 4.8 0.00 0.00 0.00 70 1023.6
20260508224140 13 34 0.0 3.2 0.00 0.00 0.00 69 1024.0
20260508223637 13 140 1.6 3.2 0.00 0.00 0.00 69 1023.6
20260508223134 13 205 3.2 4.8 0.00 0.00 0.00 69 1024.0
20260508222632 13 73 1.6 3.2 0.00 0.00 0.00 69 1023.6
20260508222128 13 83 1.6 3.2 0.00 0.00 0.00 69 1024.0
20260508221625 13 275 3.2 4.8 0.00 0.00 0.00 69 1024.0
20260508221120 13 125 1.6 1.6 0.00 0.00 0.00 69 1024.0
20260508220617 13 188 0.0 1.6 0.00 0.00 0.00 68 1024.0
20260508220114 13 97 0.0 1.6 0.00 0.00 0.00 69 1024.0
20260508215611 13 10 4.8 6.4 0.00 0.00 0.00 68 1024.0
20260508215107 13 75 1.6 4.8 0.00 0.00 0.00 69 1024.0
20260508214605 13 67 1.6 4.8 0.00 0.00 0.00 68 1023.6
20260508214101 13 99 0.0 0.0 0.00 0.00 0.00 69 1023.6
20260508213558 12 282 1.6 1.6 0.00 0.00 0.00 69 1024.0
20260508213054 13 112 1.6 1.6 0.00 0.00 0.00 69 1023.6
20260508212551 13 78 0.0 1.6 0.00 0.00 0.00 69 1023.6
20260508212047 13 78 0.0 1.6 0.00 0.00 0.00 68 1023.6
20260508211543 12 113 0.0 3.2 0.00 0.00 0.00 70 1023.6
20260508211039 13 103 1.6 3.2 0.00 0.00 0.00 70 1023.6
20260508210536 12 159 3.2 3.2 0.00 0.00 0.00 70 1023.6
20260508210034 13 164 0.0 1.6 0.00 0.00 0.00 69 1023.6
20260508205531 13 90 0.0 1.6 0.00 0.00 0.00 69 1023.3
20260508205027 13 39 0.0 1.6 0.00 0.00 0.00 70 1023.3
20260508204524 13 297 3.2 4.8 0.00 0.00 0.00 68 1023.3
20260508204019 13 110 0.0 1.6 0.00 0.00 0.00 70 1023.3
20260508203515 12 80 0.0 6.4 0.00 0.00 0.00 71 1023.3
20260508203012 12 169 0.0 6.4 0.00 0.00 0.00 72 1023.3
20260508202509 12 95 0.0 1.6 0.00 0.00 0.00 71 1023.3
20260508202005 12 112 0.0 3.2 0.00 0.00 0.00 73 1022.9
20260508201502 12 150 0.0 4.8 0.00 0.00 0.00 74 1022.9
20260508200959 11 71 0.0 3.2 0.00 0.00 0.00 74 1022.9
20260508200456 11 110 1.6 1.6 0.00 0.00 0.00 75 1023.3
20260508195950 11 116 0.0 3.2 0.00 0.00 0.00 76 1022.9
20260508195448 11 352 3.2 4.8 0.00 0.00 0.00 76 1022.9
20260508194944 11 342 1.6 3.2 0.00 0.00 0.00 76 1022.9
20260508194442 11 206 1.6 3.2 0.00 0.00 0.00 76 1023.3
20260508193938 11 128 0.0 1.6 0.00 0.00 0.00 75 1023.3